This demonstration page uses our WeatherBlox Daily Observations layout. Learn more.

38.88101, -77.10428

Hourly Observations for March 28, 2016

Temp ( °F °C ) Dew Point ( °F °C ) Humidity (%) Winds ( mph kmh ) Pressure ( in mb ) Visibility ( mi km ) Precip ( " mm )
12:13 am 00:13 Cloudy with Light Drizzle 49 9.4 47 8.3 93 93 E 8 13 30.03 1017 2.5 4.02336 0.01 0.254
12:23 am 00:23 Cloudy with Light Drizzle 49 9.4 48 8.9 97 97 E 8 13 30.03 1017 2.5 4.02336 0.01 0.254
12:33 am 00:33 Cloudy with Light Drizzle 49 9.4 48 8.9 97 97 E 7 11 30 1016 3 4.828032 0.01 0.254
12:42 am 00:42 Cloudy with Light Drizzle 48 9 48 9 100 100 E 5 7 30 1016 4 6.437376 0 0
12:52 am 00:52 Cloudy with Light Drizzle 49 9.4 48 8.9 97 97 ESE 6 9 30 1016 4 6.437376 0.02 0.508
1:52 am 01:52 Cloudy with Light Drizzle 49 9.4 47 8.3 93 93 ENE 8 13 29.94 1014 4 6.437376 0.001 0.001
1:57 am 01:57 Cloudy with Rain 49 9.4 47 8.3 93 93 ENE 7 11 29.94 1014 2.5 4.02336 0.02 0.508
2:07 am 02:07 Cloudy with Light Rain 49 9.4 47 8.3 93 93 Calm 29.97 1015 5 8.04672 0.04 1.016
2:34 am 02:34 Cloudy with Light Rain 48 9 46 8 94 94 ENE 3 6 29.94 1014 6 9.656064 0 0
2:46 am 02:46 Cloudy with Light Rain 48 9 46 8 94 94 E 3 6 29.91 1013 6 9.656064 0 0
2:52 am 02:52 Cloudy with Heavy Rain 49 9.4 47 8.3 93 93 E 3 6 29.91 1013 3 4.828032 0.14 3.556
3:52 am 03:52 Cloudy with Light Rain 49 9.4 47 8.3 93 93 E 3 6 29.88 1012 10 16.09344 0.03 0.762
4:04 am 04:04 Cloudy with Light Rain 48 9 46 8 94 94 Calm 29.88 1012 9 14.484096 0 0
4:17 am 04:17 Cloudy with Light Rain 49 9.4 47 8.3 93 93 Calm 29.88 1012 7 11.265408 0.001 0.001
4:25 am 04:25 Cloudy with Light Rain 49 9.4 47 8.3 93 93 Calm 29.88 1012 7 11.265408 0.01 0.254
4:52 am 04:52 Cloudy with Light Rain 49 9.4 47 8.3 93 93 Calm 29.85 1011 7 11.265408 0.03 0.762
5:20 am 05:20 Cloudy with Light Rain 48 9 46 8 94 94 Calm 29.83 1010 9 14.484096 0 0
5:43 am 05:43 Cloudy with Light Rain 49 9.4 47 8.3 93 93 ESE 3 6 29.83 1010 10 16.09344 0.03 0.762
5:52 am 05:52 Cloudy with Light Rain 49 9.4 47 8.3 93 93 Calm 29.83 1010 9 14.484096 0.04 1.016
6:24 am 06:24 Cloudy with Light Rain 48 9 46 8 94 94 E 3 6 29.8 1009 9 14.484096 0 0
6:41 am 06:41 Cloudy with Light Rain 49 9.4 47 8.3 93 93 Calm 29.8 1009 10 16.09344 0.05 1.27
6:52 am 06:52 Cloudy with Light Rain 49 9.4 47 8.3 93 93 ESE 3 6 29.77 1008 10 16.09344 0.06 1.524
7:34 am 07:34 Cloudy with Light Rain 50 10 46 8 88 88 ESE 3 6 29.77 1008 9 14.484096 0 0
7:52 am 07:52 Cloudy with Light Rain 50 10 48 8.9 93 93 E 3 6 29.74 1007 7 11.265408 0.02 0.508
8:52 am 08:52 Cloudy 51 10.6 48 8.9 89 89 W 5 7 29.74 1007 10 16.09344 0.001 0.001
9:07 am 09:07 Cloudy 51 10.6 48 8.9 89 89 N 5 7 29.74 1007 10 16.09344 0 0
9:52 am 09:52 Cloudy 53 11.7 50 10 89 89 Calm 29.71 1006 9 14.484096 0 0
10:52 am 10:52 Cloudy 57 13.9 52 11.1 83 83 WSW 6 9 29.71 1006 10 16.09344 0 0
11:22 am 11:22 Partly Cloudy 61 16 54 12 77 77 WSW 10 17 29.71 1006 10 16.09344 0 0
11:52 am 11:52 Mostly Sunny 63 17.2 53 11.7 70 70 W 13 20 29.71 1006 10 16.09344 0 0
12:52 pm 12:52 Partly Cloudy 66 18.9 51 10.6 59 59 W 9 15 29.68 1005 10 16.09344 0 0
1:52 pm 13:52 Mostly Sunny 70 21.1 40 4.4 34 34 WNW 25 41 29.68 1005 10 16.09344 0 0
2:52 pm 14:52 Mostly Sunny 69 20.6 32 0 25 25 W 23 37 29.71 1006 10 16.09344 0 0
3:52 pm 15:52 Mostly Sunny 66 18.9 37 2.8 34 34 NW 29 46 29.74 1007 10 16.09344 0 0
4:52 pm 16:52 Mostly Sunny 63 17.2 35 1.7 35 35 NW 26 43 29.77 1008 10 16.09344 0 0
5:52 pm 17:52 Partly Cloudy 62 16.7 35 1.7 37 37 WNW 24 39 29.8 1009 10 16.09344 0 0
6:52 pm 18:52 Mostly Cloudy 60 15.6 35 1.7 39 39 WNW 16 26 29.83 1010 10 16.09344 0 0
7:52 pm 19:52 Cloudy 58 14.4 35 1.7 42 42 WNW 20 31 29.85 1011 10 16.09344 0 0
8:52 pm 20:52 Cloudy 58 14.4 35 1.7 42 42 WNW 25 41 29.88 1012 10 16.09344 0 0
9:52 pm 21:52 Mostly Cloudy 57 13.9 35 1.7 44 44 WNW 17 28 29.91 1013 10 16.09344 0 0
10:52 pm 22:52 Mostly Cloudy 56 13.3 35 1.7 46 46 WNW 18 30 29.91 1013 10 16.09344 0 0
11:52 pm 23:52 Mostly Cloudy 56 13.3 35 1.7 46 46 NW 17 28 29.94 1014 10 16.09344 0 0

Powered by AerisWeather